Location: Houhaj�rvi
(61.2667°N, 23.0167°E)
Time: 17:09:38
(UTC+00:00)

CSL-04 Debris - Pass Details

Date: 13 December 2019
Orbit: 827 x 848 km, 99.0° (Epoch: 21 January)

Event Time Altitude Azimuth Distance (km) Brightness Sun altitude
Rises 15:55:48 0° 145° (SE) 3,390 7.2 -17.1°
Reaches altitude 10° 15:58:10 10° 143° (SE) 2,455 6.4 -17.4°
Maximum altitude 16:03:32 64° 63° (ENE) 927 4.1 -18.0°
Drops below altitude 10° 16:08:55 10° 343° (NNW) 2,456 6.6 -18.6°
Sets 16:11:17 0° 341° (NNW) 3,391 7.4 -18.9°
